Temp
16 16 16 16 15 15 16 16 15 16 17 17 17 17 17 16 16 16 16 16 16 16 16 16 16 15 15 15 15 16 16 16 15
16 15 15 15 15 15 16 15 17 16 17 17 17 18 17 16 16 16 16 16 16 16 15 15 15 15 15 14 15 15 15 15 15
15 15 15 15 15 15 15 15 16 17 17 17 18 17 17 16 16 16 16 16 15 15 15 15 14 15 14 14 14 14 14 14 14
15 15 15 15 15 15 15 15 17 17 17 17 17 17 16 16 15 15 15 16 15 15 14 15 14 14 14 14 14 14 14 14 14
15 15 15 15 14 14 15 15 16 16 17 17 17 16 16 16 16 16 15 15 15 14 14 14 13 14 13 13 13 13 13 13 13
14 14 14 14 14 14 14 15 16 16 16 16 16 16 15 15 15 15 15 14 14 14 14 13 13 13 13 13 13 13 13 13 13
14 14 14 14 14 14 14 15 16 16 16 15 15 15 14 14 14 14 15 15 14 13 13 13 13 13 13 13 13 13 12 12 12
13 13 14 13 14 14 14 15 16 16 15 15 15 14 14 14 14 14 14 14 14 13 13 13 13 12 12 12 12 12 12 12 12
13 13 14 14 14 14 14 15 15 15 15 15 14 14 14 13 14 14 14 14 14 13 13 13 12 12 12 12 12 12 12 12 11
13 14 14 14 15 15 14 14 14 14 14 14 14 13 13 13 13 13 13 14 13 13 13 13 12 12 12 12 11 11 11 11 11
14 14 14 14 15 15 15 15 15 14 14 14 14 13 13 13 13 13 13 13 13 13 13 13 12 12 12 11 11 11 11 11 11
14 14 14 14 15 15 15 15 14 14 13 13 13 13 12 12 12 12 12 12 11 12 12 12 12 11 11 11 11 10 10 10 10
15 14 15 15 14 14 14 14 14 14 13 13 13 13 12 12 12 12 12 11 11 11 11 11 11 11 11 10 10 9 9 9 9
15 15 15 15 14 14 14 14 14 13 13 13 12 12 12 12 12 12 11 11 11 11 11 10 10 9 9 9 9 9 9 8 8
14 14 14 14 14 14 14 14 13 13 13 12 12 12 12 12 12 11 11 11 11 11 11 11 10 10 9 9 8 8 8 8 8
14 14 14 14 14 14 14 14 13 12 12 12 10 11 11 11 11 11 11 11 11 11 10 10 10 10 9 9 9 8 7 7 7
14 14 14 14 14 14 14 14 12 12 12 12 11 8 9 10 10 10 11 11 10 10 10 10 10 9 9 9 8 8 7 7 7
14 14 14 14 14 14 14 14 13 12 12 12 12 8 9 9 9 10 10 10 10 10 10 10 9 9 8 8 7 7 6 6 6
14 14 14 14 14 14 14 14 14 13 12 11 12 12 11 8 7 9 9 10 9 9 9 9 9 8 8 7 6 6 5 5 5
13 14 14 14 14 14 14 14 13 13 13 12 10 11 10 10 8 6 7 9 9 9 9 8 8 8 7 6 6 5 4 4 5
Height
824 826 827 829 830 832 834 836 837 838 840 841 843 844 845 846 847 847 849 850 850 850 850 851 851 852 852 851 851 851 850 850 849
826 827 829 831 832 834 836 838 839 841 843 844 846 847 849 850 851 851 852 852 853 853 854 854 855 855 855 855 855 855 854 853 852
828 829 830 832 834 836 838 840 842 844 846 847 849 851 852 853 854 854 855 855 856 857 857 858 858 858 859 859 859 858 857 856 856
829 831 832 834 836 838 840 842 844 846 847 849 851 853 855 856 857 857 858 858 859 860 861 861 861 862 862 863 862 861 860 860 859
831 832 835 836 838 839 841 843 845 847 849 851 853 855 857 859 860 860 861 861 862 863 864 865 865 865 865 865 865 864 864 863 862
832 834 836 838 840 841 844 845 847 849 851 853 856 857 859 860 862 864 864 864 866 868 867 868 868 868 867 867 867 867 867 866 866
833 835 838 840 842 844 846 847 848 851 853 855 857 858 860 862 865 866 867 868 869 870 870 870 870 871 871 871 870 870 869 869 869
833 835 837 839 842 845 847 849 850 852 854 857 858 860 862 864 866 868 869 870 871 872 872 873 873 873 873 873 873 873 872 872 871
833 836 838 840 843 846 848 850 852 854 856 858 860 862 864 866 867 869 870 871 872 873 874 875 875 875 876 876 875 875 874 874 873
833 836 838 841 843 847 849 852 854 856 858 860 861 862 864 866 868 870 872 873 873 875 876 876 876 877 877 877 877 876 876 875 875
833 836 839 842 845 848 850 852 855 857 859 861 862 863 865 868 869 871 872 874 875 876 877 877 878 878 879 879 878 878 878 877 876
834 836 839 842 845 848 850 853 855 858 860 862 863 864 865 868 870 871 873 875 876 877 878 879 879 880 880 880 880 880 879 878 877
833 836 839 842 844 847 850 853 856 858 860 862 864 865 867 868 870 872 873 875 876 877 878 879 879 880 880 880 880 880 879 878 877
833 835 838 840 843 846 849 852 855 858 862 863 866 868 869 871 872 873 874 875 876 877 877 878 879 880 880 881 880 879 879 878 877
832 834 836 838 841 844 847 850 854 857 860 864 866 868 870 872 872 873 874 875 876 877 878 878 878 880 880 880 879 879 878 878 877
829 832 834 837 838 841 845 849 852 856 859 862 867 868 870 871 872 872 873 875 876 876 876 877 877 878 879 879 878 877 876 876 876
827 828 831 834 837 840 842 844 848 851 854 858 863 868 870 869 868 871 872 872 874 875 876 876 876 876 877 878 878 877 876 876 874
824 826 828 830 832 834 837 840 842 845 850 853 855 864 863 864 866 866 868 870 871 873 874 874 875 875 875 875 876 875 875 875 874
820 822 824 826 829 831 833 836 838 841 844 849 850 850 852 859 867 865 865 868 870 871 873 874 874 873 874 874 874 874 874 875 874
818 820 822 823 825 827 830 832 835 838 839 842 846 849 849 849 855 862 861 864 867 869 872 873 873 873 873 873 873 873 873 872 871
Wind_Speed
18 18 19 18 18 18 20 19 18 19 20 18 20 20 19 17 16 15 13 14 17 19 21 20 19 18 19 20 21 21 20 21 21
18 18 19 18 18 19 20 18 20 23 20 22 21 19 17 18 17 16 19 20 20 20 21 19 19 18 17 16 16 17 18 19 20
18 18 18 18 19 20 20 19 21 22 21 21 18 16 13 14 15 16 17 18 19 18 18 16 16 15 13 14 14 14 13 13 14
17 17 18 18 18 19 19 20 22 20 20 17 15 13 13 13 15 16 15 17 17 15 14 11 13 14 14 14 15 15 15 15 15
17 17 17 17 18 19 20 20 22 19 17 15 14 13 11 13 12 14 16 17 17 15 15 12 14 14 15 16 16 16 16 17 17
20 19 18 17 17 18 19 19 20 20 18 16 15 12 11 14 13 10 7 15 15 14 15 15 15 15 16 16 17 17 17 17 16
21 21 18 18 17 19 18 19 19 21 20 18 16 13 15 18 16 12 11 10 13 14 15 15 16 16 16 16 16 16 16 16 16
21 22 22 20 20 21 20 18 19 21 20 19 15 15 18 19 17 14 13 14 14 14 15 15 15 15 16 16 16 16 16 16 16
21 21 21 22 22 24 20 18 22 22 21 17 14 16 18 18 18 15 14 14 14 14 14 14 14 15 15 15 15 15 15 15 15
21 20 20 21 22 23 19 20 25 22 19 16 14 16 17 18 18 17 15 14 14 13 13 13 13 13 13 13 13 13 13 13 13
20 21 21 21 20 20 16 18 21 20 18 17 15 16 17 18 18 18 17 17 15 12 12 12 11 11 11 12 13 13 13 13 13
22 21 21 20 18 18 18 18 20 21 20 18 16 16 18 18 17 17 16 15 14 12 12 11 11 11 11 12 13 13 13 13 13
21 21 20 19 20 19 19 21 22 23 21 19 17 16 16 17 17 16 14 14 16 15 13 12 11 11 11 11 11 12 13 13 13
21 21 21 21 21 22 22 23 24 24 21 18 17 15 15 15 15 13 12 13 12 12 11 9 9 9 10 10 10 11 11 12 12
21 21 22 22 23 24 24 25 24 22 21 19 16 14 13 12 12 11 11 11 10 8 7 6 5 4 4 6 8 10 11 12 13
22 22 23 24 25 26 25 25 25 23 22 21 14 11 11 12 12 11 11 11 9 8 6 5 3 2 2 5 7 9 11 11 12
24 25 25 25 25 25 27 29 27 23 26 13 11 3 4 13 15 14 13 12 10 9 7 5 3 2 2 5 7 9 10 11 12
26 25 26 26 28 31 30 30 31 25 28 21 8 2 4 4 10 17 16 14 13 10 9 8 6 4 3 4 5 8 9 10 12
27 27 28 29 30 31 32 31 32 32 32 26 16 7 8 3 1 8 17 15 14 12 11 10 8 6 5 4 5 6 9 11 14
27 27 28 30 30 30 31 32 32 32 34 26 19 11 10 9 4 3 7 15 15 11 11 10 9 7 5 4 5 7 9 12 14
Wind_Direction
131 132 130 128 123 121 121 120 114 112 112 109 106 104 95 96 98 96 109 105 101 96 90 87 83 77 71 69 70 75 76 77 78
135 134 130 128 126 126 126 119 117 119 116 112 118 110 101 95 98 95 102 98 92 87 84 83 79 77 72 67 67 67 66 68 66
140 137 134 132 129 130 128 120 120 127 126 125 125 121 113 96 92 96 102 99 91 82 80 78 76 74 76 74 70 68 68 64 63
142 140 138 135 132 132 129 123 128 132 133 136 134 135 129 119 95 95 94 97 90 81 77 84 83 78 77 74 73 71 72 71 70
146 142 142 139 136 135 132 130 139 134 141 139 142 137 139 140 124 101 92 93 86 79 84 93 85 85 82 79 76 73 71 70 69
152 146 148 146 139 138 136 141 144 147 145 146 141 140 128 143 141 128 111 86 86 94 95 90 89 85 82 78 75 72 71 68 67
158 152 148 152 145 142 141 142 145 151 151 148 141 129 133 122 120 121 128 122 105 101 96 92 88 85 81 79 77 74 70 67 65
165 162 159 157 152 145 149 144 150 158 156 149 143 136 139 132 125 124 118 117 114 104 98 94 91 86 82 77 74 72 69 65 61
169 167 163 161 159 155 146 144 150 153 153 152 145 144 143 139 131 126 127 122 116 109 105 100 95 89 82 78 73 67 63 59 54
169 168 166 164 162 162 153 147 155 155 154 150 147 150 150 147 140 135 132 128 117 114 110 105 98 91 83 76 69 64 58 53 48
170 167 165 163 163 166 164 156 160 160 158 149 144 147 149 151 149 147 138 131 123 116 113 108 100 90 81 74 66 59 53 47 41
170 168 169 170 173 173 172 169 167 165 160 152 148 150 153 155 156 157 153 148 131 119 117 110 101 92 81 72 64 59 52 45 37
182 182 181 177 176 177 175 170 166 167 164 156 152 152 154 155 156 155 154 149 142 130 124 116 107 97 86 78 66 56 48 41 29
193 187 181 180 179 175 172 168 167 165 166 161 157 156 156 158 158 158 156 156 154 150 148 135 118 100 88 77 64 50 41 31 21
197 194 191 184 182 182 179 175 170 168 165 163 163 165 168 171 173 171 169 168 167 162 157 146 131 100 81 64 53 42 31 21 15
199 201 195 192 189 185 183 177 175 166 166 150 151 167 186 193 189 189 188 187 187 186 182 174 159 121 45 19 17 18 23 18 11
206 203 199 197 193 189 187 185 175 175 174 165 146 153 184 205 203 202 195 194 197 201 200 204 205 202 339 354 354 1 13 10 5
209 207 204 201 198 197 195 194 191 178 184 182 164 142 209 146 205 205 202 203 204 206 213 219 231 251 298 322 337 347 2 1 356
212 211 208 206 204 203 201 200 200 196 187 189 202 181 147 156 190 213 210 212 214 213 216 229 233 238 256 272 314 335 351 351 347
215 215 214 213 210 208 207 203 204 203 199 191 193 191 179 165 143 180 191 211 217 221 225 225 227 233 246 275 299 323 334 339 337